Location: Anumalkud?ru
(16.4847°N, 80.6636°E)
Time: 09:10:01
(UTC+00:00)

Aurora 2 Rocket - Pass Details

Date: 11 April 2026
Orbit: 384 x 1528 km, 25.0° (Epoch: 11 May)

Event Time Altitude Azimuth Distance (km) Brightness Sun altitude
Exits shadow 22:34:04 30° 312° (NW) 1,976 4.8 -26.5°
Maximum altitude 22:37:11 42° 358° (N) 1,485 4.5 -25.8°
Drops below altitude 10° 22:43:04 10° 69° (ENE) 2,518 6.7 -24.5°
Sets 22:45:25 0° 76° (ENE) 3,284 7.7 -23.9°
